Flag for Australia Weather past 2 weeks in Mount Isa, Queensland, Australia

Now
72 °F

Sunny.


Feels Like: 75 °F
Forecast: 58 / 90 °F
Wind: 8 mph from Northeast

Location: Mount Isa Amo

Current Time: Sep 2, 2015 at 9:02:06 AM

Latest Report: Sep 2, 2015 at 7:30 AM


Visibility: N/A

Pressure: 29.95 "Hg

Humidity: 22%

Dew point: 30 °F

Location of Mount IsaLocation

Historic Weather in Mount Isa — Graph

°F

Mount Isa temperature yesterday

Maximum temperature yesterday: 90 °F (at 3:00 PM)
Minimum temperature yesterday: 52 °F (at 2:30 AM)
Average temperature yesterday: 70 °F

Past Weeks' High & Low Weather Summary

 TemperatureHumidityPressure
High95 °F (Aug 23, 3:30 PM)88% (Aug 27, 8:00 AM)30.21 "Hg (Aug 27, 8:00 AM)
Low41 °F (Aug 20, 7:00 AM)10% (Sep 1, 3:00 PM)29.86 "Hg (Sep 1, 4:00 PM)
Average71 °F33%30.06 "Hg
* Reported Aug 18 7:00 AM — Sep 2 7:00 AM, Mount Isa, Weather by CustomWeather, © 2015

Note: Actual official high and low records may vary slightly from our data, if they occured in-between our weather recording intervals... More about our weather records

Advertising

Mount Isa weather history for previous 24 hours

 ConditionsComfort  
Time TempWeatherWind HumidityBarometerVisibility
7:00 AM
Wed, Sep 2
70 °FSunny.9 mph23%29.95 "Hg10 mi
6:00 AM66 °FSunny.8 mph26%29.95 "Hg10 mi
5:30 AM64 °FClear.6 mph28%29.95 "HgN/A
5:00 AM63 °FPassing clouds.5 mph30%29.92 "HgN/A
4:00 AM57 °FPassing clouds.3 mph33%29.92 "HgN/A
3:00 AM55 °FClear.1 mph33%29.92 "HgN/A
2:30 AM55 °FClear.5 mph36%29.92 "HgN/A
2:00 AM55 °FClear.No wind36%29.95 "HgN/A
1:00 AM57 °FClear.No wind33%29.95 "HgN/A
12:30 AM59 °FClear.No wind31%29.95 "HgN/A
12:00 AM59 °FClear.No wind31%29.95 "HgN/A
11:00 PM
Tue, Sep 1
61 °FClear.No wind29%29.95 "HgN/A
10:30 PM61 °FClear.No wind29%29.95 "HgN/A
10:00 PM61 °FClear.No wind29%29.95 "HgN/A
9:30 PM63 °FClear.1 mph27%29.92 "HgN/A
9:00 PM64 °FClear.2 mph26%29.92 "HgN/A
8:30 PM66 °FClear.No wind24%29.92 "HgN/A
8:00 PM68 °FClear.5 mph23%29.89 "HgN/A
7:30 PM70 °FClear.7 mph20%29.89 "HgN/A
7:00 PM77 °FClear.6 mph17%29.89 "HgN/A
6:00 PM88 °FClear.7 mph13%29.86 "HgN/A
5:30 PM90 °FSunny.8 mph12%29.86 "HgN/A
5:00 PM90 °FSunny.6 mph12%29.86 "HgN/A
4:30 PM90 °FSunny.8 mph12%29.86 "HgN/A
4:00 PM88 °FSunny.5 mph13%29.86 "HgN/A
3:00 PM90 °FSunny.8 mph10%29.89 "Hg10 mi
1:30 PM88 °FSunny.14 mph12%29.95 "HgN/A
1:00 PM86 °FSunny.15 mph12%29.95 "Hg10 mi
12:30 PM86 °FSunny.13 mph12%29.98 "Hg10 mi
12:00 PM84 °FSunny.15 mph13%29.98 "Hg10 mi
11:30 AM84 °FSunny.15 mph12%30.01 "HgN/A
11:00 AM82 °FSunny.13 mph13%30.01 "Hg10 mi
10:30 AM81 °FSunny.10 mph14%30.04 "HgN/A
10:00 AM79 °FSunny.12 mph15%30.04 "Hg10 mi
9:30 AM77 °FSunny.13 mph15%30.04 "HgN/A
9:00 AM75 °FSunny.13 mph15%30.01 "Hg10 mi
Weather by CustomWeather, © 2015

See weather overviewHow to use our weather pages